Tracking 19644 objects as of 24-Apr-2019
HD Live streaming from Space Station
objects crossing your sky now

SL-14 R/B

Track SL-14 R/B now!
10-day predictions


NORAD ID: 18794
Int'l Code: 1988-002G
Perigee: 1,419.1 km
Apogee: 1,477.8 km
Inclination: 82.6 °
Period: 114.7 minutes
Semi major axis: 7819 km
RCS: 5.0802 m2 (large)
Launch date: January 15, 1988
Source: Commonwealth of Independent States (former USSR) (CIS)
Launch site: PLESETSK MISSILE AND SPACE COMPLEX (PKMTR)

Note: This is a ROCKET BODY
aabbcc
Your satellite tracking list
Your tracking list is empty




NASA's NSSDC Master Catalog

Two Line Element Set (TLE):
1 18794U 88002G   19113.43687666  .00000004  00000-0 -39336-4 0  9991
2 18794  82.6034 223.5116 0037541 200.9847 226.2824 12.55558056433237
Source of the keplerian elements: AFSPC